Regional Weather Roundup
Issued by NWS

Home | Current Version | Previous Version | Graphics & Text | Print | Product List | Glossary On
Versions: 1 2 3 4 5 6 7 8 9 10 11 12 13 14 15 16 17 18 19 20 21 22 23 24 25 26 27 28 29 30 31 32 33 34 35 36 37 38 39 40 41 42 43 44 45 46 47 48 49 50
000
ASUS43 KDTX 300310
RWRMI
MICHIGAN HOURLY REGIONAL WEATHER ROUNDUP
NATIONAL WEATHER SERVICE DETROIT/PONTIAC MI
1100 PM EDT MON SEP 29 2014

NOTE: "FAIR" INDICATES FEW OR NO CLOUDS BELOW 12,000 FEET WITH NO
SIGNIFICANT WEATHER AND/OR OBSTRUCTION TO VISIBILITY.

MIZ047>049-052>055-059>063-066>070-074>076-081>083-300400-
SOUTHEAST LOWER MICHIGAN

CITY           SKY/WX    TMP DP  RH WIND       PRES   REMARKS
ADRIAN         CLEAR     58  55  90 CALM      29.91F
ALMA           CLOUDY    53  51  94 NW10      29.96R
ANN ARBOR      PTCLDY    58  55  90 CALM      29.89F
BAD AXE        HVY RAIN  60  60 100 N15       29.89R
DETROIT CITY   CLEAR     63  59  87 SW6       29.89F
DETROIT        PTCLDY    63  59  87 S5        29.90S
FLINT          LGT RAIN  64  60  87 N13       29.92R FOG
GROSSE ILE     CLEAR     66  63  88 S6        29.88F
HILLSDALE      PTCLDY    58  57  97 CALM      29.92F
HOWELL         CLOUDY    65  59  81 NW9       29.91R

CITY           SKY/WX    TMP DP  RH WIND       PRES   REMARKS
JACKSON        CLOUDY    59  56  89 NW5       29.91S
LAMBERTVILLE   CLEAR     57  54  88 CALM      29.91S
LANSING        LGT RAIN  61  58  90 NW13      29.94R
LAPEER         NOT AVBL
MASON          CLOUDY    66  59  77 NW10      29.91S
MONROE           N/A     59  57  94 CALM      29.89S FOG
MT. CLEMENS    CLEAR     64  59  85 SW7       29.86F
PONTIAC        CLOUDY    65  57  75 W3        29.88F
PORT HOPE        N/A     60  58  92 VRB3      29.88S
PORT HURON     PTCLDY    59  59 100 S5        29.87F
TRI CITIES     CLOUDY    56  52  86 NW12      29.95R
YPSILANTI      CLEAR     64  57  78 S5        29.90F
$$
MIZ043>046-050>051-056>058-064>065-071>073-077>080-300400-
SOUTHWEST LOWER MICHIGAN

CITY           SKY/WX    TMP DP  RH WIND       PRES   REMARKS
BATTLE CREEK   CLOUDY    64  58  80 NW12      29.94S HAZE
BIG RAPIDS     CLOUDY    49  49 100 N10G16    29.98S
COLDWATER      CLEAR     62  59  90 W8        29.93R
GRAND RAPIDS   CLOUDY    56  55  97 NW12      29.96S
KALAMAZOO      MOCLDY    61  57  87 N9        29.95S
MARSHALL       CLOUDY    64  58  82 NW5       29.92S
MUSKEGON       CLOUDY    51  46  83 N17G26    30.01R
$$
MIZ016>042-300400-
NORTHERN LOWER MICHIGAN

CITY           SKY/WX    TMP DP  RH WIND       PRES   REMARKS
ALPENA         CLOUDY    49  48  97 N13       29.95S FOG
BEAVER ISLAND  DRIZZLE   46  45  93 N8        30.04S
BELLAIRE       CLOUDY    49  47  92 N5        30.00S
CADILLAC       DRIZZLE   47  47  98 NW7       29.98S
CHARLEVOIX     CLOUDY    49  48  95 NE12G18   30.04S FOG
FRANKFORT      CLOUDY    49  45  86 N9G22     30.03F
GAYLORD        CLOUDY    46  45  96 VRB3      29.98S FOG
GRAYLING       CLOUDY    49  49  98 N7        29.98S
HARBOR SPRINGS CLOUDY    47  45  91 CALM      30.01S FOG
HOUGHTON LAKE  CLOUDY    50  48  93 NW9       29.96F
OSCODA         RAIN      54  53  99 NW12      29.91R
PELLSTON       CLOUDY    46  45  96 N9        30.02R FOG
TRAVERSE CITY  CLOUDY    50  46  86 N12       29.99F
$$
MIZ007>008-015-300400-
EASTERN UPPER MICHIGAN

CITY           SKY/WX    TMP DP  RH WIND       PRES   REMARKS
MACKINAC ISLAN CLOUDY    44  43  97 N13G18    30.02S
NEWBERRY       CLOUDY    41  41  97 N7        30.05S
S. S. MARIE    CLOUDY    43  37  79 N7        30.03S
$$
MIZ004>006-011>014-085-300400-
CENTRAL UPPER MICHIGAN

CITY           SKY/WX    TMP DP  RH WIND       PRES   REMARKS
MANISTIQUE     CLOUDY    42  40  94 N12       30.06F
SAWYER-GWINN   CLOUDY    40  39  93 N15       30.11S FOG
$$
MIZ001>003-009>011-084-300400-
WESTERN UPPER MICHIGAN

CITY           SKY/WX    TMP DP  RH WIND       PRES   REMARKS
IRON MOUNTAIN  CLOUDY    42  38  85 N15       30.12S
HOUGHTON       CLOUDY    41  35  79 NE7       30.18F
COPPER HARBOR    N/A     44  38  79 E17G24    30.19F
$$

ABBREVIATIONS USED IN REMARKS
   TC - TEMPERATURE IN CELSIUS
  WCI - WIND CHILL INDEX
   HX - HEAT INDEX
  VSB - VISIBILITY



USA.gov is the U.S. government's official web portal to all federal, state and local government web resources and services.